Startpagina
METAR-TAF:

METAR-TAF

Vliegvelden :

Steamboat Springs, Colorado, Verenigde Staten

breedte: 40-30-58N, lengte: 106-51-59W, hoogte: 2098 m

Actueel weer

Dit bericht is 18 minuten geleden gemaakt, om 08:35 UTC
Weinig wind
Temperatuur 11°C
Vochtigheid 43%
Druk 1019 hPa
Zicht: 16.1 km
Onbewolkt

METAR: KSBS 190835Z AUTO 00000KT 10SM CLR 11/M01 A3008 RMK AO1 T01061015

Tijdstip: 02:53 (08:53 UTC)


TAF: ontbreekt

Waarnemingen en weersverwachtingen van meer dan 4000 vliegvelden (METAR en TAF).

De beschikbare stations zijn de gele en rode punten op de kaart.

Ga met uw muis naar het station om de naam te zien.

Klik dan om waarnemingen en weersverwachtingen te zien.

kaart wijzigen: klik op de groene knoppen met een zwart kruis om in te zoomen, op de groene knop met een streepje om uit te zoomen of op de groene pijlen voor aangrenzende kaarten.


METAR-TAF: